TimePST,TemperatureF,Dew PointF,Humidity,Sea Level PressureIn,VisibilityMPH,Wind Direction,Wind SpeedMPH,Gust SpeedMPH,PrecipitationIn,Events,Conditions,WindDirDegrees,DateUTC
12:56 AM,55.0,51.1,86,29.97,9.0,SSE,12.7,-,0.00,Rain,Light Rain,160,2012-11-29 08:56:00
1:37 AM,55.4,51.8,88,29.97,10.0,SSE,9.2,-,0.00,Rain,Light Rain,150,2012-11-29 09:37:00
1:56 AM,55.0,51.1,86,29.96,10.0,SSE,11.5,19.6,0.00,,Overcast,150,2012-11-29 09:56:00
2:06 AM,53.6,51.8,94,29.97,10.0,SSE,11.5,-,N/A,,Overcast,150,2012-11-29 10:06:00
2:54 AM,53.6,51.8,94,29.97,5.0,SSE,10.4,19.6,0.02,Rain,Light Rain,150,2012-11-29 10:54:00
2:56 AM,54.0,51.1,90,29.96,6.0,SSE,10.4,17.3,0.02,Rain,Light Rain,150,2012-11-29 10:56:00
3:56 AM,54.0,51.1,90,29.94,6.0,SSE,11.5,-,0.02,Rain,Light Rain,150,2012-11-29 11:56:00
4:07 AM,53.6,51.8,94,29.95,9.0,SSE,10.4,-,0.00,,Overcast,150,2012-11-29 12:07:00
4:41 AM,53.6,51.8,94,29.94,4.0,SSE,9.2,19.6,0.01,Rain,Light Rain,150,2012-11-29 12:41:00
4:56 AM,54.0,52.0,93,29.93,4.0,SSE,11.5,18.4,0.02,Rain,Light Rain,150,2012-11-29 12:56:00
5:39 AM,53.6,51.8,94,29.94,3.0,SSE,8.1,16.1,0.03,Rain,Light Rain,160,2012-11-29 13:39:00
5:56 AM,54.0,52.0,93,29.93,4.0,SSE,9.2,18.4,0.04,Rain,Light Rain,150,2012-11-29 13:56:00
6:56 AM,54.0,52.0,93,29.93,6.0,SE,11.5,20.7,0.03,Rain,Light Rain,140,2012-11-29 14:56:00
7:56 AM,55.0,52.0,89,29.92,10.0,SSE,9.2,18.4,0.01,,Overcast,160,2012-11-29 15:56:00
8:19 AM,55.4,51.8,88,29.92,10.0,SSE,10.4,20.7,N/A,,Overcast,150,2012-11-29 16:19:00
8:56 AM,55.9,51.1,84,29.91,10.0,SSE,16.1,25.3,N/A,,Overcast,150,2012-11-29 16:56:00
9:47 AM,55.4,51.8,88,29.91,10.0,SSE,13.8,26.5,0.00,Rain,Light Rain,150,2012-11-29 17:47:00
9:56 AM,55.9,51.1,84,29.91,10.0,SSE,16.1,25.3,0.00,,Overcast,150,2012-11-29 17:56:00
10:54 AM,55.4,51.8,88,29.92,5.0,SSE,13.8,24.2,0.00,Rain,Light Rain,150,2012-11-29 18:54:00
10:56 AM,55.0,52.0,89,29.91,5.0,SSE,11.5,24.2,0.00,Rain,Light Rain,150,2012-11-29 18:56:00
11:25 AM,55.4,51.8,88,29.91,2.5,SE,15.0,25.3,0.01,Rain,Light Rain,140,2012-11-29 19:25:00
11:34 AM,55.4,51.8,88,29.90,4.0,SSE,18.4,26.5,0.01,Rain,Light Rain,150,2012-11-29 19:34:00
11:56 AM,55.0,52.0,89,29.88,10.0,SSE,13.8,23.0,0.01,Rain,Light Rain,150,2012-11-29 19:56:00
12:33 PM,55.4,51.8,88,29.88,1.8,SSE,16.1,26.5,0.04,Rain,Light Rain,160,2012-11-29 20:33:00
12:56 PM,55.0,53.1,93,29.86,1.8,SSE,15.0,26.5,0.12,Rain,Rain,150,2012-11-29 20:56:00
1:08 PM,55.4,53.6,94,29.86,3.0,SSE,12.7,25.3,0.02,Rain,Light Rain,150,2012-11-29 21:08:00
1:18 PM,55.4,53.6,94,29.87,3.0,SSE,16.1,25.3,0.04,Rain,Heavy Rain,160,2012-11-29 21:18:00
1:25 PM,55.4,53.6,94,29.86,2.0,SSE,13.8,25.3,0.06,Rain,Rain,150,2012-11-29 21:25:00
1:39 PM,55.4,53.6,94,29.86,3.0,SSE,10.4,24.2,0.08,Rain,Light Rain,150,2012-11-29 21:39:00
1:56 PM,55.0,54.0,96,29.82,3.0,SSE,11.5,19.6,0.13,Rain,Heavy Rain,150,2012-11-29 21:56:00
2:11 PM,55.4,53.6,94,29.82,2.5,SSE,10.4,18.4,0.05,Rain,Rain,160,2012-11-29 22:11:00
2:53 PM,55.4,53.6,94,29.82,3.0,South,10.4,19.6,0.22,Rain,Rain,170,2012-11-29 22:53:00
2:56 PM,55.9,54.0,93,29.81,3.0,SSE,10.4,19.6,0.24,Rain,Rain,160,2012-11-29 22:56:00
2:58 PM,55.4,53.6,94,29.81,2.5,SSE,9.2,19.6,0.01,Rain,Rain,150,2012-11-29 22:58:00
3:29 PM,57.2,55.4,94,29.81,3.0,SSE,11.5,18.4,0.15,Rain,Heavy Rain,150,2012-11-29 23:29:00
3:36 PM,57.2,55.4,94,29.81,2.0,SSE,11.5,-,0.20,Rain,Heavy Rain,150,2012-11-29 23:36:00
3:56 PM,57.0,55.0,93,29.80,1.5,SSE,6.9,-,0.34,Rain,Heavy Rain,150,2012-11-29 23:56:00
4:07 PM,57.2,55.4,94,29.81,3.0,SSW,6.9,-,0.04,Rain,Rain,210,2012-11-30 00:07:00
4:15 PM,57.2,55.4,94,29.81,3.0,South,6.9,-,0.07,Rain,Rain,170,2012-11-30 00:15:00
4:26 PM,57.2,55.4,94,29.81,2.5,SSE,10.4,17.3,0.11,Rain,Heavy Rain,160,2012-11-30 00:26:00
4:38 PM,57.2,55.4,94,29.81,5.0,SSE,11.5,-,0.14,Rain,Rain,160,2012-11-30 00:38:00
4:56 PM,57.0,55.0,93,29.79,7.0,SSE,13.8,19.6,0.16,Rain,Light Rain,150,2012-11-30 00:56:00
5:33 PM,57.2,55.4,94,29.80,5.0,SSE,9.2,17.3,0.08,Rain,Rain,150,2012-11-30 01:33:00
5:56 PM,57.0,55.0,93,29.78,5.0,SSE,8.1,17.3,0.12,Rain,Light Rain,160,2012-11-30 01:56:00
6:56 PM,57.0,55.9,96,29.78,4.0,SSE,5.8,-,0.18,Rain,Heavy Rain,160,2012-11-30 02:56:00
7:07 PM,57.2,55.4,94,29.78,2.5,South,8.1,-,0.07,Rain,Heavy Rain,180,2012-11-30 03:07:00
7:14 PM,57.2,55.4,94,29.78,5.0,SSE,6.9,-,0.08,Rain,Light Rain,160,2012-11-30 03:14:00
7:31 PM,57.2,55.4,94,29.77,7.0,SSE,8.1,-,0.10,Rain,Light Rain,150,2012-11-30 03:31:00
7:56 PM,57.9,55.9,93,29.75,3.0,South,8.1,-,0.15,Rain,Heavy Rain,180,2012-11-30 03:56:00
8:39 PM,57.2,55.4,94,29.76,5.0,SE,10.4,-,0.19,Rain,Rain,140,2012-11-30 04:39:00
8:42 PM,57.2,55.4,94,29.75,4.0,SSE,10.4,-,0.20,Rain,Rain,150,2012-11-30 04:42:00
8:51 PM,57.2,55.4,94,29.75,6.0,SSE,8.1,-,0.22,Rain,Light Rain,160,2012-11-30 04:51:00
8:56 PM,57.9,55.9,93,29.73,9.0,SSE,8.1,16.1,0.22,Rain,Light Rain,160,2012-11-30 04:56:00
9:56 PM,59.0,55.9,90,29.70,8.0,SSE,11.5,23.0,0.10,Rain,Light Rain,150,2012-11-30 05:56:00
10:46 PM,59.0,55.4,88,29.72,4.0,SSE,6.9,-,0.09,Rain,Rain,160,2012-11-30 06:46:00
10:56 PM,57.9,55.9,93,29.70,3.0,South,4.6,-,0.13,Rain,Rain,170,2012-11-30 06:56:00
11:10 PM,57.2,55.4,94,29.73,2.5,SSE,4.6,-,0.09,Rain,Heavy Rain,160,2012-11-30 07:10:00
11:30 PM,60.8,55.4,82,29.73,3.0,Variable,5.8,16.1,0.25,Rain,Heavy Rain,0,2012-11-30 07:30:00
11:56 PM,60.1,55.9,86,29.72,3.0,South,3.5,-,0.44,Rain,Heavy Rain,170,2012-11-30 07:56:00
11:58 PM,60.8,55.4,82,29.73,2.5,South,6.9,-,0.03,Rain,Heavy Rain,190,2012-11-30 07:58:00